Regional Weather Roundup
Issued by NWS

Home | Current Version | Previous Version | Graphics & Text | Print | Product List | Glossary On
Versions: 1 2 3 4 5 6 7 8 9 10 11 12 13 14 15 16 17 18 19 20 21 22 23 24 25 26 27 28 29 30 31 32 33 34 35 36 37 38 39 40 41 42 43 44 45 46 47 48 49 50
000
ASUS45 KABQ 301810
RWRNM
WEATHER ROUNDUP FOR NEW MEXICO
NATIONAL WEATHER SERVICE ALBUQUERQUE NM
1200 PM MDT SAT AUG 30 2014

NOTE: "FAIR" MEANS FEW OR NO CLOUDS BELOW 12,000 FEET AGL WITH NO
       SIGNIFICANT WEATHER OR OBSTRUCTIONS TO VISION.

      THIS PRODUCT IS RELEASED AS TWO VERSIONS.  ONE VERSION NEAR
      THE TOP OF THE HOUR CONTAINING PRELIMINARY DATA FROM ALBUQUERQUE
      AND OTHER STATIONS.  A FINAL VERSION WITH ADDITIONAL DATA IS
      ISSUED ABOUT 10 MINUTES AFTER THE HOUR.

NMZ501-503-504-510>518-301900-
NORTHWEST PLATEAU/NORTHCENTRAL MOUNTAINS

CITY           SKY/WX    TMP DP  RH WIND       PRES   REMARKS
FARMINGTON     SUNNY     80  40  23 VRB3      30.15F
6HR MIN TEMP:  54; 6HR MAX TEMP:  81;

LOS ALAMOS     SUNNY     74  40  29 S7        30.28F
SANTA FE       SUNNY     79  41  25 S10G16    30.22F
6HR MIN TEMP:  53; 6HR MAX TEMP:  79;

ANGEL FIRE     FAIR      68  35  29 W17G24    30.35F

$$
NMZ402-403-502-505>509-301900-
WESTCENTRAL MOUNTAINS/SOUTHWEST MOUNTAINS

CITY           SKY/WX    TMP DP  RH WIND       PRES   REMARKS
GALLUP         SUNNY     83  32  16 W10G21    30.22F
6HR MIN TEMP:  44; 6HR MAX TEMP:  83;

SILVER CITY    SUNNY     86  39  19 SW3G18    30.20S

$$
NMZ407-409-411-412-301900-
SOUTHERN DESERTS

CITY           SKY/WX    TMP DP  RH WIND       PRES   REMARKS
LORDSBURG      FAIR      88  43  20 SW3       30.09F
DEMING         SUNNY     91  42  18 VRB3      30.09F
6HR MIN TEMP:  64; 6HR MAX TEMP:  92;

LAS CRUCES     SUNNY     90  41  17 W3        30.12F
HOLLOMAN AFB   SUNNY     91  50  24 S12       30.07F
ALAMOGORDO     SUNNY     90  54  29 S12       30.10F
T OR C         SUNNY     85  46  25 VRB3      30.13F
6HR MIN TEMP:  66; 6HR MAX TEMP:  86;


$$
NMZ519>523-301900-
CENTRAL VALLEYS/CENTRAL HIGHLANDS

CITY           SKY/WX    TMP DP  RH WIND       PRES   REMARKS
ALBUQUERQUE    MOSUNNY   80  44  27 SW8       30.17F
6HR MIN TEMP:  61; 6HR MAX TEMP:  81;

DOUBLE EAGLE   MOSUNNY   79  45  29 SE9       30.21F
MORIARTY ARPT  FAIR      80  46  30 S9G18     30.23F
6HR MIN TEMP:  46; 6HR MAX TEMP:  80;

CLINES CORNERS SUNNY     76  46  34 SW15G22   30.27F
6HR MIN TEMP:  54; 6HR MAX TEMP:  76;

BELEN          FAIR      82  45  27 S8        30.16F
6HR MIN TEMP:  53; 6HR MAX TEMP:  82;

SOCORRO        FAIR      85  49  28 SE9       30.13F
6HR MIN TEMP:  59; 6HR MAX TEMP:  85;


$$
NMZ524>526-539-540-301900-
SOUTHCENTRAL MOUNTAINS

CITY           SKY/WX    TMP DP  RH WIND       PRES   REMARKS
RUIDOSO        SUNNY     79  43  27 NE8       30.30F

$$
NMZ527>531-301900-
NORTHEAST HIGHLANDS/NORTHEAST PLAINS

CITY           SKY/WX    TMP DP  RH WIND       PRES   REMARKS
LAS VEGAS      SUNNY     78  43  28 S14G24    30.24F
6HR MIN TEMP:  47; 6HR MAX TEMP:  78;

RATON          SUNNY     76  44  32 S12       30.17F
6HR MIN TEMP:  50; 6HR MAX TEMP:  77;

CLAYTON        SUNNY     84  46  26 SW17G29   30.11F
6HR MIN TEMP:  61; 6HR MAX TEMP:  84;


$$
NMZ532>537-301900-
EASTCENTRAL PLAINS

CITY           SKY/WX    TMP DP  RH WIND       PRES   REMARKS
TUCUMCARI      MOSUNNY   91  50  24 SW14      30.06F
6HR MIN TEMP:  62; 6HR MAX TEMP:  91;

CANNON AFB     SUNNY     87  53  31 SW8       30.11F
6HR MIN TEMP:  63; 6HR MAX TEMP:  87;

CLOVIS AIRPORT   N/A     88  48  25 SW9       30.13F

$$
NMZ028-029-538-301900-
SOUTHEAST PLAINS

CITY           SKY/WX    TMP DP  RH WIND       PRES   REMARKS
ROSWELL        SUNNY     88  60  38 S10       30.06F
6HR MIN TEMP:  64; 6HR MAX TEMP:  89;

CARLSBAD       SUNNY     92  51  24 S8        30.04F
6HR MIN TEMP:  68; 6HR MAX TEMP:  93;

HOBBS          MOSUNNY   88  48  25 S6        30.10F


$$



USA.gov is the U.S. government's official web portal to all federal, state and local government web resources and services.